Location: Bremen
(53.0793°N, 8.8017°E)
Time: 04:48:45
(UTC+01:00)

Vanguard 1 Rocket - Pass Details

Date: 05 December 2021
Orbit: 651 x 4224 km, 34.3° (Epoch: 17 January)

Event Time Altitude Azimuth Distance (km) Brightness Sun altitude
Rises 03:32:46 0° 231° (SW) 4,733 - -41.8°
Reaches altitude 10° 03:35:41 10° 222° (SW) 4,128 - -41.4°
Exits shadow 03:43:18 33° 181° (S) 3,522 10.1 -40.3°
Maximum altitude 03:46:03 35° 162° (SSE) 3,699 10.3 -39.9°
Drops below altitude 10° 04:03:24 10° 107° (ESE) 6,872 12.4 -37.4°
Sets 04:10:14 0° 101° (E) 8,244 13.1 -36.4°
